Regional Weather Roundup
Issued by NWS

Home | Current Version | Previous Version | Graphics & Text | Print | Product List | Glossary On
Versions: 1 2 3 4 5 6 7 8 9 10 11 12 13 14 15 16 17 18 19 20 21 22 23 24 25 26 27 28 29 30 31 32 33 34 35 36 37 38 39 40 41 42 43 44 45 46 47 48 49 50
000
ASUS43 KLOT 240904
RWRIL

ILLINOIS REGIONAL WEATHER ROUNDUP
NATIONAL WEATHER SERVICE CHICAGO/ROMEOVILLE IL
400 AM CDT THU MAY 24 2018

NOTE: "FAIR" INDICATES FEW OR NO CLOUDS BELOW 12,000 FEET WITH NO
SIGNIFICANT WEATHER AND/OR OBSTRUCTIONS TO VISIBILITY.

* THESE STATIONS ARE NOT UNDER NWS QUALITY CONTROL. THEY ALSO MAY NOT
  REPORT WEATHER SUCH AS PRECIPITATION OR FOG.

ILZ001-002-007-009-015-016-024-241000-
NORTHWEST ILLINOIS

CITY           SKY/WX    TMP DP  RH WIND       PRES   REMARKS
MOLINE         FAIR      62  58  86 CALM      30.13R
STERLING*      FAIR      60  57  89 E5        30.15S
SAVANNA*       FAIR      63  57  81 CALM      30.15R
$$

ILZ003-004-008-010-011-017-018-241000-
NORTH CENTRAL ILLINOIS

CITY           SKY/WX    TMP DP  RH WIND       PRES   REMARKS
ROCKFORD       FAIR      59  52  77 CALM      30.17S
FREEPORT*      FAIR      57  54  88 SE3       30.18R
ROCHELLE*      FAIR      60  53  76 SE7       30.17R
DE KALB*       FAIR      58  52  79 SE5       30.18S
PERU*          FAIR      61  56  84 NE3       30.16S
$$

ILZ005-006-012>014-019>023-241000-
NORTHEAST ILLINOIS

CITY           SKY/WX    TMP DP  RH WIND       PRES   REMARKS
CHICAGO-OHARE  FAIR      59  52  77 CALM      30.16S
CHICAGO-MIDWAY FAIR      60  53  77 E3        30.17R
AURORA         FAIR      57  53  86 CALM      30.16S
LANSING*       FAIR      54  54 100 CALM      30.17S
JOLIET*        FAIR      56  55  95 CALM      30.16S
WAUKEGAN       FAIR      51  51 100 SW3       30.16S FOG
DUPAGE AIRPORT FAIR      55  52  89 N3        30.16S
KANKAKEE*      FAIR      56  55  94 CALM      30.17S
WHEELING       FAIR      56  53  90 CALM      30.18S
MORRIS*        FAIR      59  53  80 CALM      30.16R
ROMEOVILLE*    FAIR      58  54  85 CALM      30.16S
NORTHERLY ISL    N/A     57  51  80 N1          N/A
$$

LMZ740>746-241000-
SOUTHERN LAKE MICHIGAN

STATION/POSITION SKY/WX   TEMP    WIND        PRES    VSBY  WAVE
                          AIR SEA DIR/SP/G                  HT/PER
                          (F)     (DEG/KT/KT) (MB)    (MI)  (FT/S)
SOUTHERN BUOY              51 39  130/  8/  8 1022.2R         0
WILMETTE HARBOR            55 52     CALM       N/A           0
HARRISON CRIB              58      CALM  /  1   N/A
BURNHAM HARBOR             56      CALM  /  3   N/A
CALUMET HARBOR             56     340/  2/  2 1021.1
BURNS HARBOR               62        CALM     1022.0S
MICHIGAN CITY              61     120/  8/  9   N/A
MICHIGAN CITY 6N           57 56   90/  2/  4   N/A           0
ST. JOSEPH                 58 55  150/  4/  6 1022.2R         0
$$

ILZ025>027-034>036-040-047-049-050-058-095>099-241000-
WEST-CENTRAL ILLINOIS

CITY           SKY/WX    TMP DP  RH WIND       PRES   REMARKS
QUINCY         CLEAR     70  60  70 SE5       30.12R
GALESBURG*     FAIR      65  56  71 E6        30.15R
MACOMB*        CLEAR     62  59  91 CALM      30.15R
JACKSONVILLE*  CLEAR     63  59  87 E3        30.13S
PITTSFIELD*    PTCLDY    65  65  98 CALM      30.13S
$$

ILZ028>032-037-038-041>044-048-051>054-059>061-241000-
CENTRAL ILLINOIS

CITY           SKY/WX    TMP DP  RH WIND       PRES   REMARKS
PONTIAC        FAIR      61  58  90 SE7       30.16S
BLOOMINGTON    FAIR      68  50  52 SE10      30.16S
DECATUR        FAIR      62  52  69 E5        30.14S
PEORIA         FAIR      68  53  58 SE3       30.14R
LACON*         FAIR      59  56  88 CALM      30.14R
LINCOLN*       FAIR      65  54  65 CALM      30.14S
SPRINGFIELD    FAIR      66  57  72 CALM      30.13S
TAYLORVILLE    FAIR      65  58  77 SE6       30.13S
$$

ILZ033-039-045-046-055>057-062-063-241000-
EAST-CENTRAL ILLINOIS

CITY           SKY/WX    TMP DP  RH WIND       PRES   REMARKS
CHAMPAIGN      FAIR      61  53  75 E8        30.15S
DANVILLE*      FAIR      62  52  70 E6        30.14S
RANTOUL*       FAIR      65  54  67 SE5       30.16S
MATTOON        FAIR      63  57  81 SE6       30.14S
PARIS*         FAIR      62  55  78 E3        30.17S
$$

ILZ079-100>102-241000-
SOUTHWEST ILLINOIS

CITY           SKY/WX    TMP DP  RH WIND       PRES   REMARKS
ALTON          CLEAR     62  60  93 CALM      30.12R
BELLEVILLE     CLEAR     64  63  96 CALM      30.10S
CAHOKIA*       CLEAR     65  62  90 CALM      30.11R
SPARTA*        CLEAR     64  64 100 CALM      30.12S
$$

ILZ064>066-069>071-074>076-080>082-084>086-088>090-092>094-241000-
SOUTH-CENTRAL ILLINOIS

CITY           SKY/WX    TMP DP  RH WIND       PRES   REMARKS
CARBONDALE     FAIR      63  62  97 CALM      30.10F
CAIRO*         FAIR      67  66  99 CALM      30.09S
EFFINGHAM*     FAIR      61  59  94 CALM      30.16S
MARION         FAIR      62  61  99 CALM      30.12S
MT. VERNON     FAIR      58  57  97 CALM      30.12S
CENTRALIA*     PTCLDY    64  62  92 CALM      30.11S
SALEM*         FAIR      68  59  73 E3        30.13S
METROPOLIS*    FAIR      65  64  97 CALM      30.10F
$$

ILZ067-068-072-073-078-083-087-091-241000-
SOUTHEAST ILLINOIS

CITY           SKY/WX    TMP DP  RH WIND       PRES   REMARKS
LAWRENCEVILLE  FAIR      64  59  83 NE6       30.14S
FLORA*         FAIR      64  60  86 CALM      30.14R
FAIRFIELD*     FAIR      66  59  79 CALM      30.12S
HARRISBURG*    FAIR      64  63  96 CALM      30.12S
ROBINSON*      FAIR      59  59  99 CALM      30.16R
CARMI*         FAIR      63  59  88 CALM      30.12R
$$

ABBREVIATIONS USED IN REMARKS
   TC - TEMPERATURE IN CELSIUS
  WCI - WIND CHILL INDEX
   HX - HEAT INDEX
  VSB - VISIBILITY
$$





USA.gov is the U.S. government's official web portal to all federal, state and local government web resources and services.